Showing default

WORLDVIEW 2, 35946

Orbit data source: Space-Track

WORLDVIEW 2, 35946 is a payload satellite owned by DigitalGlobe (US) in SSO that was launched on Thu, 08 Oct 2009 UTC via a DELTA 7920-10C launch vehicle from the Air Force Western Test Range (AFWTR). Payload-class satellites include a variety of spacecraft equipped with specific instruments for various scientific and technological missions. These include communications satellites like Starlink; space stations such as the ISS; scientific satellites like the Hubble; Earth observation satellites from companies like Planet Labs, Umbra, and HawkEye 360; GPS; miniature CubeSats for education and research; and military/defense satellites.

Loading next visibility...
Identifier
35946, 2009-055A
Orbit
SSO
Country
Flag of USUS
Related business
Manufacturer
Ball
Mission
Operational Commercial Imaging
Bus & Motor
BCP-5000, Unknown motor
Mass
2,615 kg wet, ~2,200 kg dry
Launch date (UTC)
2009-10-08 (16 years ago)
Launch vehicle
DELTA 7920-10C
Launch site
Air Force Western Test Range (AFWTR)
Object type
Payload
Rocket body
Debris
Shape & HBR
Hex Cyl + 2 Pan, 4.4 m
Radar Cross Section
13.188 m², Large (>1 m²)

Expand to show TLE details & history
Last TLE update: 10 hours ago

TLE from 10 hours ago
0 WORLDVIEW 2
1 35946U 09055A   25303.86453702  .00000262  00000-0  10192-3 0  9990
2 35946  98.4776  15.5490 0004170 168.9975 191.1304 14.37550209842695
Epoch: 2025-10-30T20:44Z
TLE epoch observation values (Epoch: 2025-10-30T20:44:55.998Z)
Latitude
-0.00001°
Longitude
24.89847°
Altitude
772.474 km
Speed
7.466 km/s
True Right ascension
01h 02m 11s
True Declination
0° 00' 00"
Sunlit
Object was in full shadow at epoch
Visualization orbit readout
Latitude
Unknown
Longitude
Unknown
Altitude
Unknown
Speed
Unknown
Apparent Right ascension
Unknown
Apparent Declination
Unknown
Sunlit
N/A
Visualization observer readout
Local Sidereal Time
02:37:52
Azimuth
Unknown
Elevation
Unknown
Doppler factor
Unknown
Orbital elements
Apogee altitude
766.706 km
Perigee altitude
760.75 km
Semi-major axis
7,141.865 km
Eccentricity
0.00042
Inclination
98.4776°
RAAN
15.549°
Arg. of periapsis
168.9975°
True anomaly
191.12118°
Mean anomaly
191.1304°
Eccentric anomaly
191.12579°
Mean motion
3.59605 °/min
Orbital period
100.11 mins
BSTAR
0.00010192
Loading maneuver chart data...
Computing Atmospheric mass density...

Documentation

Showing up to 5 results
|